Regional Weather Roundup
Issued by NWS

Home | Current Version | Previous Version | Text Only | Print | Product List | Glossary Off
Versions: 1 2 3 4 5 6 7 8 9 10 11 12 13 14 15 16 17 18 19 20 21 22 23 24 25 26 27 28 29 30 31 32 33 34 35 36 37 38 39 40 41 42 43 44 45 46 47 48 49 50

000
ASUS43 KBIS 251501
RWRND

NORTH DAKOTA REGIONAL WEATHER ROUNDUP
NATIONAL WEATHER SERVICE BISMARCK ND
900 AM CST SUN JAN 25 2015

NOTE: "FAIR" INDICATES FEW OR NO CLOUDS BELOW 12,000 FEET WITH NO
SIGNIFICANT WEATHER AND/OR OBSTRUCTIONS TO VISIBILITY.


NDZ001>003-009>011-017-251600-
NORTHWEST NORTH DAKOTA

CITY           SKY/WX    TMP DP  RH WIND       PRES   REMARKS
WILLISTON      CLOUDY    33  29  85 CALM      29.99S
MINOT          CLOUDY    23  19  85 NW3       29.96F
MINOT AFB      CLOUDY    20  20  99 NW5       29.98S WCI  14
$$

NDZ018>021-031>035-040>046-251600-
SOUTHWEST NORTH DAKOTA

CITY           SKY/WX    TMP DP  RH WIND       PRES   REMARKS
BISMARCK       CLOUDY    35  31  85 NW9       29.99R
DICKINSON      CLOUDY    33  28  81 W13       29.96S
GARRISON         N/A     33  31  92 W9        29.95S
HETTINGER ARPT CLOUDY    33  27  78 NW9       30.02R
$$

NDZ004>008-012>016-024-026-027-054-251600-
NORTHEAST NORTH DAKOTA

CITY           SKY/WX    TMP DP  RH WIND       PRES   REMARKS
GRAND FORKS    FAIR      12   7  80 N5        30.05R WCI   4
GRND FRKS AFB  CLEAR     10   5  82 NE2       30.04S
DEVILS LAKE    CLOUDY    18  10  73 SE3       29.99S
$$

NDZ022-023-025-028>030-036>039-047>053-251600-
SOUTHEAST NORTH DAKOTA

CITY           SKY/WX    TMP DP  RH WIND       PRES   REMARKS
FARGO          CLEAR     19  12  74 N10       30.04R WCI   7
JAMESTOWN      CLOUDY    20  16  84 N6        30.00R WCI  12
$$




USA.gov is the U.S. government's official web portal to all federal, state and local government web resources and services.